Location: Oberwangen
(47.4286°N, 8.9679°E)
Time: 12:57:46
(UTC+00:00)

Cosmos 192 - Pass Details

Date: 20 June 2021
Orbit: 702 x 712 km, 74.0° (Epoch: 02 August)

Event Time Altitude Azimuth Distance (km) Brightness Sun altitude
Exits shadow 22:33:47 27° 207° (SSW) 1,343 5.3 -18.2°
Maximum altitude 22:36:30 82° 292° (WNW) 719 4.3 -18.3°
Drops below altitude 10° 22:41:26 10° 21° (NNE) 2,183 7.7 -18.4°
Sets 22:43:46 0° 22° (NNE) 3,105 8.6 -18.5°
